Regional Weather Roundup
Issued by NWS State College, PA

Home | Current Version | Previous Version | Graphics & Text | Print | Product List | Glossary On
Versions: 1 2 3 4 5 6 7 8 9 10 11 12 13 14 15 16 17 18 19 20 21 22 23 24 25 26 27 28 29 30 31 32 33 34 35 36 37 38 39 40 41 42 43 44 45 46 47 48 49 50
000
ASUS41 KCTP 280210
RWRCTP

REGIONAL WEATHER ROUNDUP
NATIONAL WEATHER SERVICE STATE COLLEGE PA
1000 PM EDT SAT MAY 27 2017

Note: "fair" indicates few or no clouds below 12,000 feet with no
significant weather and/or obstructions to visibility.

* = STATION THAT DOES NOT REPORT PRECIPITATION /E.G. RAIN...SNOW...ETC/
    THUNDER OR FOG.

PAZ002>004-007>009-013>016-020>023-029>032-280300-
WESTERN PENNSYLVANIA

CITY           SKY/WX    TMP DP  RH WIND       PRES   REMARKS
ERIE           CLEAR     59  51  75 CALM      29.90S
MEADVILLE      CLEAR     58  53  84 CALM      29.92R
FRANKLIN*      CLEAR     61  52  72 NE7       29.93R
NEW CASTLE     FAIR      63  58  83 N3        29.92R
BEAVER COUNTY  NOT AVBL
BUTLER*        CLEAR     61  57  88 CALM      29.91S
PITTSBURGH INT PTCLDY    66  62  87 CALM      29.90S
PITTSBURGH     CLOUDY    65  59  81 CALM      29.90S
INDIANA*       CLEAR     61  61 100 CALM      29.94S
LATROBE        CLEAR     63  63 100 CALM      29.92S
WASHINGTON CO* CLEAR     61  57  88 CALM      29.92S
$$

PAZ004>006-010>012-017>019-024>028-033>037-041-042-045-046-049>053-280300-
CENTRAL PENNSYLVANIA

CITY           SKY/WX    TMP DP  RH WIND       PRES   REMARKS
BRADFORD       CLEAR     57  53  86 CALM      29.93S
DUBOIS         CLEAR     60  55  83 CALM      29.91R
CLEARFIELD     CLEAR     62  58  86 NW3       29.92R
JOHNSTOWN      CLOUDY    60  58  92 CALM      29.94R
ALTOONA        CLOUDY    64  61  90 W5        29.93R
STATE COLLEGE  NOT AVBL
WILLIAMSPORT   CLOUDY    67  57  70 VRB5      29.88R
SELINSGROVE    CLEAR     60  58  92 CALM      29.90R
FT INDIANTOWN  CLEAR     59  59 100 CALM      29.91R
CAPITAL CITY   PTCLDY    63  58  83 CALM      29.91R
HARRISBURG     MOCLDY    63  60  90 S3        29.90R
YORK           CLOUDY    63  63 100 CALM      29.91S
$$

PAZ038>040-043-044-047-048-054-055-060>062-067>071-280300-
EASTERN PENNSYLVANIA

CITY           SKY/WX    TMP DP  RH WIND       PRES   REMARKS
SCRANTON       CLOUDY    64  56  75 E5        29.92R
MOUNT POCONO   CLOUDY    57  55  93 CALM      29.95R
ALLENTOWN      PTCLDY    64  53  67 CALM      29.91R
QUAKERTOWN*    CLEAR     59  55  88 CALM      29.92R
READING        PTCLDY    65  59  81 CALM      29.90R
LANCASTER      CLOUDY    67  60  78 SW3       29.91R
COATESVILLE    CLOUDY    63  59  88 CALM      29.93R
POTTSTOWN      PTCLDY    63  56  78 CALM      29.92R
BLUE BELL      CLOUDY    63  59  88 CALM      29.92S
DOYLESTOWN     CLEAR     60  57  89 CALM      29.90R
WILLOW GROVE   NOT AVBL
NORTH PHILA    CLOUDY    69  59  70 CALM      29.92R
PHILADELPHIA   MOCLDY    67  58  72 SW5       29.91R
$$




USA.gov is the U.S. government's official web portal to all federal, state and local government web resources and services.